Regional Weather Roundup
Issued by NWS

Home | Current Version | Previous Version | Text Only | Print | Product List | Glossary On
Versions: 1 2 3 4 5 6 7 8 9 10 11 12 13 14 15 16 17 18 19 20 21 22 23 24 25 26 27 28 29 30 31 32 33 34 35 36 37 38 39 40 41 42 43 44 45 46 47 48 49 50
000
ASUS43 KMKX 281300
RWRWI

WISCONSIN REGIONAL WEATHER ROUNDUP
NATIONAL WEATHER SERVICE MILWAUKEE/SULLIVAN WI
800 AM CDT THU JUL 28 2016

NOTE: "FAIR" INDICATES FEW OR NO CLOUDS BELOW 12,000 FEET WITH NO
SIGNIFICANT WEATHER AND/OR OBSTRUCTIONS TO VISIBILITY.

WIZ001-002-006>008-014>016-023>028-281400-
NORTHWEST WISCONSIN

CITY           SKY/WX    TMP DP  RH WIND       PRES   REMARKS
SUPERIOR ARPT  SUNNY     63  57  82 E9        30.07R
ASHLAND        SUNNY     65  59  81 NE12      30.06S
HAYWARD        SUNNY     64  59  83 NE8       30.05R
SIREN          CLOUDY    61  59  94 NE5       30.05R
CUMBERLAND     CLOUDY    63  61  94 N8        30.02S
RICE LAKE      CLOUDY    65  62  90 NE9       30.03R
CHETEK         CLOUDY    65  63  91 NE7       30.02R
LADYSMITH      CLOUDY    65  63  93 NE10      30.03S
EAU CLAIRE     NOT AVBL
MENOMONIE      CLOUDY    66  66  99 N6        29.99R
NEW RICHMOND   CLOUDY    64  63  96 N8        30.01S
OSCEOLA        CLOUDY    65  65 100 N8        30.04S
$$

WIZ003>005-009-010-017-018-281400-
NORTH CENTRAL WISCONSIN

CITY           SKY/WX    TMP DP  RH WIND       PRES   REMARKS
MANITOWISH WTR SUNNY     61  58  91 NE5       30.05F
ARBOR VITAE    PTSUNNY   62  57  85 NE7       30.05F
WOODRUFF       PTSUNNY   62  57  85 NE7       30.05F
RHINELANDER    CLOUDY    61  58  90 NE6       30.05S
EAGLE RIVER    MOSUNNY   61  58  89 NE6       30.05S
LAND O LAKES   SUNNY     61  56  83 N8        30.07R
PHILLIPS       MOSUNNY   63  60  90 NE10      30.03S
TOMAHAWK       CLOUDY    60  58  93 NE5       30.04S
MEDFORD        CLOUDY    60  60 100 NE7       30.01S
MERRILL        DRIZZLE   60  60 100 E8        30.02F
$$

WIZ029-030-035-036-043>047-281400-
CENTRAL WISCONSIN

CITY           SKY/WX    TMP DP  RH WIND       PRES   REMARKS
WAUSAU         LGT RAIN  60  59  96 E7        30.00S FOG
MOSINEE        HVY RAIN  59  59 100 NE9       30.01S
MARSHFIELD     LGT RAIN  62  59  90 E10       29.99R
STEVENS POINT  LGT RAIN  59  59  99 NE10G16   30.00R
WAUPACA        CLOUDY    66  65  99 NE7       29.99R
WAUTOMA        CLOUDY    65  62  90 NE12G18   29.98R
WISC RAPIDS    CLOUDY    64  61  90 E10       29.99R
CAMP DOUGLAS   NOT AVBL
$$

WIZ011>013-019>022-031-037>040-048>050-281400-
NORTHEAST WISCONSIN

CITY           SKY/WX    TMP DP  RH WIND       PRES   REMARKS
ANTIGO         DRIZZLE   58  58 100 CALM      30.04S
SHAWANO        LGT RAIN  63  60  91 NE12      30.02S
OCONTO         CLOUDY   N/A N/A N/A N6        30.01R
STURGEON BAY   CLOUDY    62  61  96 NE8       30.02R
GREEN BAY      CLOUDY    64  63  96 NE13      29.99S
MANITOWOC      NOT AVBL
APPLETON       NOT AVBL
CLINTONVILLE   CLOUDY    61  59  94 NE12      30.00S
OSHKOSH        CLOUDY    67  61  81 NE10      29.98R
$$

WIZ032>034-041-042-053>061-281400-
SOUTHWEST WISCONSIN

CITY           SKY/WX    TMP DP  RH WIND       PRES   REMARKS
LA CROSSE      CLOUDY    69  65  86 N9        29.92S
SPARTA         CLOUDY    67  67  99 CALM      29.93S
VIROQUA        CLOUDY    68  68 100 CALM      29.93S VSB 1/4
BOSCOBEL       FOG       70  69  97 CALM      29.91S VSB 1
PRAIRIE DU CHI CLOUDY    70  68  93 CALM      29.90S
PLATTEVILLE    SUNNY     72  69  91 CALM      29.92R
$$

WIZ056-057-062-063-064-067-068-281400-
SOUTH CENTRAL WISCONSIN

CITY           SKY/WX    TMP DP  RH WIND       PRES   REMARKS
REEDSBURG      CLOUDY    68  67  97 E5        29.93R
BARABOO/DELLS  CLOUDY    67  65  91 E9        29.94R
LONE ROCK      NOT AVBL
MINERAL POINT  MOSUNNY   72  70  94 NE3       29.92S
MADISON        CLOUDY    71  66  84 E8        29.92S
MIDDLETON      CLOUDY    71  70  96 E8        29.93S
WATERTOWN      CLOUDY    68  68 100 E8        29.93S
MONROE         SUNNY     68  66  94 NE5       29.93R FOG
JANESVILLE     CLOUDY    73  72  94 E9        29.92R FOG
$$

WIZ051-052-058>065-066-070>072-281400-
SOUTHEAST WISCONSIN

CITY           SKY/WX    TMP DP  RH WIND       PRES   REMARKS
MILWAUKEE      FOG       69  68  96 NE6       29.93S VSB 1/4
WAUKESHA       PTSUNNY   68  64  88 NE12      29.95S
MILWAUKEE/TIMM CLOUDY    70  66  88 NE8       29.95S FOG
RACINE         CLOUDY    70  68  93 NE6       29.95R FOG
BURLINGTON     SUNNY     70  66  87 E3        29.93S
KENOSHA        MOSUNNY   72  68  87 E7        29.94R
FOND DU LAC    LGT RAIN  68  62  81 NE10      29.97R
SHEBOYGAN      CLOUDY    66  61  84 NE17G26   29.97R
WEST BEND      CLOUDY    66  64  94 NE9       29.95S
JUNEAU         CLOUDY    67  65  96 NE5       29.96R
$$

LSZ147-162-281400-
LAKE SUPERIOR

STATION/POSITION TIME  TEMP    WIND        PRES    WAVE
                       AIR SEA DIR/SP/G            HT/PER
                 (UTC) (F)     (DEG/KT/KT) (MB)    (FT/S)
W MID LAKE BUOY  1150   62 59   30/ 12/ 14 1017.7R   1
DEVILS ISLAND    1200   62      30/ 10/ 12 1018.2R
PORT WING        1140   62      40/  7/  8 1017.9S
SAXON HARBOR     1200   65      80/  8/ 10 1017.3
$$

LMZ867-665-643>646-281400-
LAKE MICHIGAN

STATION/POSITION TIME  TEMP    WIND        PRES    WAVE
                       AIR SEA DIR/SP/G            HT/PER
                 (UTC) (F)     (DEG/KT/KT) (MB)    (FT/S)
CHAMBERS ISLAND  1200   65      20/ 10/ 15 1016.3R
N MID LAKE BUOY  1150   64 69   60/ 10/ 12 1015.4R   2/ 4
NORTHPORT PIER   1200   63      50/  7/  9 1016.3S
SISTER BAY       1221   60        CALM       N/A
ALGOMA LAKESHORE 1213           60/ 16/ 20   N/A
KEWAUNEE LAKESHO 1200   62      30/  6/  9 1015.1R
SHEBOYGAN LAKESH 1200   60     350/ 16/ 17 1014.6R
PORT WASHINGTON  1200   71     360/  6/ 10 1014.6S
ATWATER BUOY     1200   63 64  360/ 12/ 14 1015.0R
MILWAUKEE LAKESH 1210   67     360/  6/  8   N/A
S MID LAKE BUOY  1150   73 74   60/  8/ 10 1012.4R   1
KENOSHA   LAKESH 1200   67     360/ 10/ 11 1013.2R
$$

TC  - TEMPERATURE IN CELSIUS
VSB - VISIBILITY IN STATUTE MILES
WCI - WIND CHILL INDEX
HX  - HEAT INDEX





USA.gov is the U.S. government's official web portal to all federal, state and local government web resources and services.